KLM25 MMMX-EHAM

Flight info

Callsign KLM25
Flight time N/A
Altitude 35000
Route IKLAN2A IKLAN UT140 TAM UM575 XOTUG/N0479F370 UM575 CLONN M575 TBD DCT HRV DCT VUZ DCT VXV DCT HNN DCT AIR DCT EWC DCT JHW DCT MIGLO DCT YUL/N0485F390 DCT CEFOU N645B RIKAL/M083F400 DCT 53N050W 55N040W 56N030W 56N020W DCT RESNO DCT NETKI/N0481F410 DCT LIFFY UL975 WAL M16 DOLAS L603 LAMSO
Aircraft B772/H-SDE2E3FGHIJ5LORVWXY/LB1D1

Departure

Time 2026-05-08 02:58
Airport Mexico City Benito Juárez International Airport (MMMX)

Arrival

Time N/A
Airport Amsterdam Airport Schiphol (EHAM)
Time Latitude Longitude Altitude Speed Heading
2026-05-08 02:12 19.43637 -99.07885 7307 ft 0 kts 293°
2026-05-08 02:42 19.43632 -99.07871 7307 ft 4 kts 276°
2026-05-08 02:42 19.43637 -99.07850 7307 ft 4 kts 208°
2026-05-08 02:42 19.43662 -99.07844 7307 ft 4 kts 175°
2026-05-08 02:43 19.43688 -99.07850 7307 ft 4 kts 154°
2026-05-08 02:43 19.43694 -99.07853 7307 ft 0 kts 149°
2026-05-08 02:50 19.43686 -99.07848 7307 ft 4 kts 149°
2026-05-08 02:50 19.43664 -99.07833 7307 ft 4 kts 148°
2026-05-08 02:50 19.43629 -99.07811 7307 ft 7 kts 154°
2026-05-08 02:50 19.43577 -99.07831 7307 ft 12 kts 232°
2026-05-08 02:51 19.43559 -99.07859 7307 ft 12 kts 237°
2026-05-08 02:51 19.43517 -99.07933 7307 ft 12 kts 239°
2026-05-08 02:51 19.43476 -99.08007 7307 ft 12 kts 239°
2026-05-08 02:51 19.43434 -99.08081 7307 ft 12 kts 239°
2026-05-08 02:52 19.43392 -99.08156 7307 ft 12 kts 239°
2026-05-08 02:52 19.43351 -99.08230 7307 ft 12 kts 239°
2026-05-08 02:52 19.43309 -99.08304 7307 ft 12 kts 239°
2026-05-08 02:52 19.43267 -99.08378 7307 ft 12 kts 239°
2026-05-08 02:53 19.43226 -99.08451 7307 ft 12 kts 239°
2026-05-08 02:53 19.43185 -99.08526 7307 ft 12 kts 239°
2026-05-08 02:53 19.43144 -99.08600 7307 ft 12 kts 239°
2026-05-08 02:53 19.43102 -99.08675 7307 ft 13 kts 238°
2026-05-08 02:54 19.43050 -99.08765 7307 ft 14 kts 239°
2026-05-08 02:54 19.42999 -99.08857 7307 ft 14 kts 239°
2026-05-08 02:54 19.42948 -99.08947 7307 ft 14 kts 238°
2026-05-08 02:54 19.42893 -99.09020 7307 ft 11 kts 221°
2026-05-08 02:55 19.42815 -99.09071 7307 ft 14 kts 208°
2026-05-08 02:55 19.42697 -99.08981 7307 ft 14 kts 94°
2026-05-08 02:55 19.42690 -99.08881 7307 ft 14 kts 94°
2026-05-08 02:56 19.42685 -99.08782 7307 ft 14 kts 93°
2026-05-08 02:56 19.42678 -99.08683 7308 ft 13 kts 97°
2026-05-08 02:56 19.42681 -99.08620 7309 ft 0 kts 59°
2026-05-08 02:57 19.42767 -99.08468 7307 ft 61 kts 58°
2026-05-08 02:57 19.43119 -99.07850 7308 ft 133 kts 57°
2026-05-08 02:57 19.43710 -99.06819 7338 ft 190 kts 56°
2026-05-08 02:57 19.44399 -99.05584 7780 ft 195 kts 56°
2026-05-08 02:58 19.45136 -99.04341 8740 ft 194 kts 56°
2026-05-08 02:58 19.45870 -99.03114 9414 ft 204 kts 56°
2026-05-08 02:58 19.46675 -99.01782 9505 ft 225 kts 57°
2026-05-08 02:58 19.47562 -99.00311 9580 ft 248 kts 57°
2026-05-08 02:59 19.48538 -98.98703 9674 ft 269 kts 58°
2026-05-08 02:59 19.49576 -98.96962 9820 ft 289 kts 59°
2026-05-08 02:59 19.50606 -98.95121 10221 ft 300 kts 61°
2026-05-08 02:59 19.51698 -98.93141 10353 ft 322 kts 60°
2026-05-08 03:00 19.52875 -98.91030 10473 ft 343 kts 60°
2026-05-08 03:00 19.54261 -98.88909 10707 ft 358 kts 51°
2026-05-08 03:00 19.55955 -98.86934 11211 ft 366 kts 47°
2026-05-08 03:00 19.57748 -98.84977 11722 ft 373 kts 47°
2026-05-08 03:01 19.59652 -98.83119 12224 ft 374 kts 34°
2026-05-08 03:01 19.62080 -98.82099 12780 ft 381 kts
2026-05-08 03:01 19.64718 -98.82161 13445 ft 378 kts 352°
2026-05-08 03:01 19.67361 -98.82502 13931 ft 385 kts 353°
2026-05-08 03:02 19.70006 -98.82771 14524 ft 388 kts 354°
2026-05-08 03:02 19.72718 -98.83013 15109 ft 393 kts 354°
2026-05-08 03:02 19.75448 -98.83239 15794 ft 394 kts 355°
2026-05-08 03:02 19.78188 -98.83463 16470 ft 396 kts 355°
2026-05-08 03:03 19.80942 -98.83691 17057 ft 399 kts 355°
2026-05-08 03:03 19.83730 -98.83926 17610 ft 404 kts 354°
2026-05-08 03:03 19.86541 -98.84165 18158 ft 407 kts 354°
2026-05-08 03:03 19.89375 -98.84408 18699 ft 410 kts 354°
2026-05-08 03:04 19.92232 -98.84655 19157 ft 413 kts 354°
2026-05-08 03:04 19.95064 -98.84900 19648 ft 415 kts 354°
2026-05-08 03:04 19.97951 -98.85150 20103 ft 418 kts 354°
2026-05-08 03:04 20.00864 -98.85403 20499 ft 422 kts 354°
2026-05-08 03:05 20.03807 -98.85658 20905 ft 427 kts 354°
2026-05-08 03:05 20.06780 -98.85916 21313 ft 430 kts 354°
2026-05-08 03:05 20.09777 -98.86176 21754 ft 434 kts 354°
2026-05-08 03:05 20.12795 -98.86438 22156 ft 437 kts 354°
2026-05-08 03:06 20.15798 -98.86699 22567 ft 441 kts 354°
2026-05-08 03:06 20.18863 -98.86965 22971 ft 444 kts 354°
2026-05-08 03:06 20.21954 -98.87234 23366 ft 448 kts 354°
2026-05-08 03:06 20.25071 -98.87505 23749 ft 451 kts 354°
2026-05-08 03:07 20.28210 -98.87777 24086 ft 454 kts 354°
2026-05-08 03:07 20.31365 -98.88052 24444 ft 456 kts 354°
2026-05-08 03:07 20.34536 -98.88328 24812 ft 458 kts 354°
2026-05-08 03:07 20.37720 -98.88605 25176 ft 460 kts 354°
2026-05-08 03:08 20.40920 -98.88717 25454 ft 464 kts
2026-05-08 03:08 20.44121 -98.88208 25754 ft 468 kts 13°
2026-05-08 03:08 20.47189 -98.87156 26111 ft 471 kts 23°
2026-05-08 03:08 20.50122 -98.85612 26438 ft 471 kts 27°
2026-05-08 03:09 20.53036 -98.83976 26709 ft 475 kts 28°
2026-05-08 03:09 20.55965 -98.82324 27040 ft 478 kts 27°
2026-05-08 03:09 20.58912 -98.80669 27388 ft 480 kts 27°
2026-05-08 03:09 20.61883 -98.79014 27665 ft 484 kts 27°
2026-05-08 03:10 20.64886 -98.77354 27934 ft 488 kts 27°
2026-05-08 03:10 20.67910 -98.75691 28250 ft 490 kts 27°
2026-05-08 03:10 20.70952 -98.74022 28610 ft 492 kts 27°
2026-05-08 03:10 20.73966 -98.72370 28928 ft 495 kts 27°
2026-05-08 03:11 20.77037 -98.70687 29245 ft 498 kts 26°
2026-05-08 03:11 20.80132 -98.68990 29493 ft 502 kts 26°
2026-05-08 03:11 20.83245 -98.67282 29796 ft 504 kts 26°
2026-05-08 03:11 20.86373 -98.65564 30103 ft 507 kts 26°
2026-05-08 03:12 20.89508 -98.63841 30400 ft 508 kts 26°
2026-05-08 03:12 20.92653 -98.62111 30673 ft 509 kts 26°
2026-05-08 03:12 20.95808 -98.60375 30940 ft 511 kts 26°
2026-05-08 03:12 20.98981 -98.58629 31192 ft 514 kts 26°
2026-05-08 03:13 21.02172 -98.56872 31426 ft 517 kts 26°
2026-05-08 03:13 21.05373 -98.55107 31655 ft 519 kts 26°
2026-05-08 03:13 21.08588 -98.53334 31868 ft 521 kts 26°
2026-05-08 03:13 21.11767 -98.51581 32090 ft 522 kts 26°
2026-05-08 03:14 21.14999 -98.49798 32321 ft 523 kts 26°
2026-05-08 03:14 21.18235 -98.48011 32530 ft 525 kts 26°
2026-05-08 03:14 21.21486 -98.46215 32740 ft 526 kts 26°
2026-05-08 03:14 21.24742 -98.44415 32983 ft 527 kts 26°
2026-05-08 03:15 21.27993 -98.42616 33276 ft 526 kts 26°
2026-05-08 03:15 21.31238 -98.40820 33604 ft 525 kts 26°
2026-05-08 03:15 21.34481 -98.39026 33882 ft 524 kts 25°
2026-05-08 03:15 21.37722 -98.37231 34124 ft 524 kts 25°
2026-05-08 03:16 21.40959 -98.35438 34394 ft 523 kts 25°
2026-05-08 03:16 21.44188 -98.33648 34674 ft 522 kts 25°
2026-05-08 03:16 21.47374 -98.31880 34836 ft 524 kts 25°
2026-05-08 03:17 21.53866 -98.28278 34898 ft 526 kts 25°
2026-05-08 03:17 21.60321 -98.24690 34893 ft 519 kts 25°
2026-05-08 03:18 21.66739 -98.21121 34903 ft 520 kts 25°
2026-05-08 03:18 21.73171 -98.17541 34902 ft 521 kts 25°
2026-05-08 03:19 21.79580 -98.13970 34899 ft 523 kts 25°
2026-05-08 03:19 21.86039 -98.10366 34896 ft 523 kts 25°
2026-05-08 03:20 21.92502 -98.06756 34899 ft 523 kts 25°
2026-05-08 03:20 21.98968 -98.03141 34899 ft 523 kts 25°
2026-05-08 03:21 22.05371 -97.99557 34890 ft 519 kts 25°
2026-05-08 03:21 22.11762 -97.95977 34895 ft 517 kts 25°
2026-05-08 03:22 22.18110 -97.92416 34884 ft 507 kts 25°
2026-05-08 03:22 22.24324 -97.88928 34894 ft 502 kts 25°
2026-05-08 03:23 22.30489 -97.85358 34902 ft 505 kts 28°
2026-05-08 03:23 22.36401 -97.81335 34901 ft 506 kts 30°
2026-05-08 03:24 22.42339 -97.77237 34902 ft 507 kts 30°
2026-05-08 03:24 22.48302 -97.73157 34905 ft 507 kts 29°
2026-05-08 03:25 22.54270 -97.69087 34910 ft 508 kts 29°
2026-05-08 03:25 22.60204 -97.65035 34925 ft 507 kts 29°
2026-05-08 03:26 22.66177 -97.60950 34910 ft 508 kts 29°
2026-05-08 03:26 22.72149 -97.56859 34914 ft 508 kts 29°
2026-05-08 03:27 22.78115 -97.52766 34913 ft 508 kts 29°
2026-05-08 03:27 22.84077 -97.48672 34914 ft 507 kts 29°
2026-05-08 03:28 22.89994 -97.44604 34916 ft 506 kts 29°
2026-05-08 03:28 22.95933 -97.40516 34916 ft 505 kts 29°
2026-05-08 03:29 23.15029 -97.27344 34919 ft 504 kts 29°
2026-05-08 03:29 23.38627 -97.10985 34932 ft 502 kts 29°
2026-05-08 03:30 23.73784 -96.86522 34921 ft 502 kts 29°
2026-05-08 03:31 24.20874 -96.53469 34947 ft 505 kts 29°
2026-05-08 03:32 24.31794 -96.45652 34909 ft 509 kts 30°
2026-05-08 03:32 24.37794 -96.41422 34951 ft 517 kts 28°
2026-05-08 03:33 24.43952 -96.37156 34950 ft 529 kts 29°
2026-05-08 03:33 24.50198 -96.32746 34946 ft 537 kts 29°
2026-05-08 03:34 24.56438 -96.28303 34948 ft 539 kts 29°
2026-05-08 03:34 24.62737 -96.23822 34950 ft 540 kts 29°
2026-05-08 03:35 24.69049 -96.19335 34944 ft 540 kts 29°
2026-05-08 03:35 24.75353 -96.14854 34939 ft 539 kts 29°
2026-05-08 03:36 24.81437 -96.10520 34932 ft 530 kts 29°
2026-05-08 03:36 24.87620 -96.06113 34946 ft 529 kts 29°
2026-05-08 03:37 24.93799 -96.01703 34951 ft 530 kts 29°
2026-05-08 03:37 24.99986 -95.97283 34955 ft 530 kts 29°
2026-05-08 03:38 25.06140 -95.92880 34956 ft 531 kts 29°
2026-05-08 03:38 25.12345 -95.88433 34957 ft 532 kts 29°
2026-05-08 03:39 25.18557 -95.83975 34958 ft 533 kts 29°
2026-05-08 03:39 25.24778 -95.79505 34964 ft 534 kts 29°
2026-05-08 03:40 25.30962 -95.75057 34964 ft 535 kts 29°
2026-05-08 03:40 25.37201 -95.70563 34953 ft 535 kts 29°
2026-05-08 03:41 25.43437 -95.66065 34957 ft 535 kts 29°
2026-05-08 03:41 25.49663 -95.61569 34965 ft 534 kts 29°
2026-05-08 03:42 25.55886 -95.57069 34976 ft 534 kts 29°
2026-05-08 03:42 25.62038 -95.52546 34970 ft 536 kts 32°
2026-05-08 03:43 25.67674 -95.47097 34965 ft 540 kts 42°
2026-05-08 03:43 25.72949 -95.41166 35015 ft 539 kts 43°
2026-05-08 03:43 25.75577 -95.38209 35239 ft 537 kts 43°
2026-05-08 03:44 25.78201 -95.35274 35472 ft 536 kts 42°
2026-05-08 03:44 25.80829 -95.32349 35774 ft 533 kts 42°
2026-05-08 03:44 25.83413 -95.29484 36080 ft 531 kts 42°
2026-05-08 03:44 25.86022 -95.26597 36401 ft 529 kts 41°
2026-05-08 03:45 25.88621 -95.23722 36712 ft 526 kts 41°
2026-05-08 03:45 25.91213 -95.20853 36919 ft 526 kts 41°
2026-05-08 03:45 25.93815 -95.17972 36978 ft 530 kts 41°
2026-05-08 03:46 25.99071 -95.12143 36989 ft 538 kts 41°
2026-05-08 03:46 26.04344 -95.06280 36982 ft 541 kts 41°
2026-05-08 03:47 26.09677 -95.00340 36985 ft 543 kts 41°
2026-05-08 03:47 26.14968 -94.94435 36957 ft 533 kts 41°
2026-05-08 03:48 26.20187 -94.88606 36989 ft 531 kts 41°
2026-05-08 03:48 26.25362 -94.82823 36977 ft 531 kts 41°
2026-05-08 03:49 26.30572 -94.76992 36992 ft 531 kts 42°
2026-05-08 03:49 26.35785 -94.71149 36990 ft 532 kts 42°
2026-05-08 03:50 26.41004 -94.65291 36985 ft 533 kts 42°
2026-05-08 03:50 26.46200 -94.59451 36987 ft 534 kts 42°
2026-05-08 03:51 26.51436 -94.53557 36985 ft 536 kts 41°
2026-05-08 03:51 26.56686 -94.47640 36987 ft 537 kts 41°
2026-05-08 03:52 26.61939 -94.41711 36990 ft 537 kts 41°
2026-05-08 03:52 26.67152 -94.35817 36988 ft 536 kts 41°
2026-05-08 03:53 26.72389 -94.29890 36990 ft 535 kts 41°
2026-05-08 03:53 26.77612 -94.23969 36993 ft 534 kts 41°
2026-05-08 03:54 26.82822 -94.18057 36992 ft 533 kts 41°
2026-05-08 03:54 26.88030 -94.12137 36992 ft 533 kts 41°
2026-05-08 03:55 26.93199 -94.06254 36992 ft 533 kts 41°
2026-05-08 03:55 26.98405 -94.00320 36993 ft 534 kts 41°
2026-05-08 03:56 27.03613 -93.94374 36998 ft 535 kts 41°
2026-05-08 03:56 27.08795 -93.88452 37001 ft 536 kts 41°
2026-05-08 03:57 27.14018 -93.82479 37014 ft 536 kts 41°
2026-05-08 03:57 27.19245 -93.76496 37003 ft 537 kts 41°
2026-05-08 03:58 27.24478 -93.70495 37003 ft 537 kts 41°
2026-05-08 03:58 27.29708 -93.64488 37003 ft 538 kts 41°
2026-05-08 03:59 27.34902 -93.58512 37003 ft 538 kts 41°
2026-05-08 03:59 27.40130 -93.52490 37002 ft 538 kts 41°
2026-05-08 04:00 27.45352 -93.46466 37018 ft 538 kts 41°
2026-05-08 04:00 27.50579 -93.40427 37012 ft 539 kts 41°
2026-05-08 04:01 27.55773 -93.34418 37011 ft 539 kts 41°
2026-05-08 04:01 27.61001 -93.28359 37008 ft 539 kts 41°
2026-05-08 04:02 27.66231 -93.22291 37009 ft 539 kts 41°
2026-05-08 04:02 27.71458 -93.16218 37013 ft 540 kts 41°
2026-05-08 04:03 27.76651 -93.10181 37013 ft 540 kts 41°
2026-05-08 04:03 27.84487 -93.01049 37017 ft 539 kts 41°
2026-05-08 04:04 27.89705 -92.94957 37015 ft 539 kts 41°
2026-05-08 04:04 27.94916 -92.88864 37018 ft 539 kts 41°
2026-05-08 04:05 28.00086 -92.82809 37018 ft 539 kts 41°
2026-05-08 04:05 28.05289 -92.76706 37039 ft 539 kts 41°
2026-05-08 04:06 28.10490 -92.70598 37021 ft 539 kts 41°
2026-05-08 04:06 28.15694 -92.64476 37020 ft 539 kts 41°
2026-05-08 04:07 28.20857 -92.58391 37019 ft 539 kts 41°
2026-05-08 04:07 28.26053 -92.52260 37019 ft 539 kts 41°
2026-05-08 04:08 28.31243 -92.46126 37019 ft 539 kts 42°
2026-05-08 04:08 28.36433 -92.39981 37039 ft 539 kts 42°
2026-05-08 04:09 28.41585 -92.33870 37023 ft 539 kts 42°
2026-05-08 04:09 28.46767 -92.27712 37031 ft 539 kts 42°
2026-05-08 04:10 28.51945 -92.21551 37030 ft 539 kts 42°
2026-05-08 04:10 28.57116 -92.15390 37030 ft 538 kts 42°
2026-05-08 04:11 28.62284 -92.09223 37032 ft 538 kts 42°
2026-05-08 04:11 28.67407 -92.03100 37041 ft 538 kts 41°
2026-05-08 04:12 28.72569 -91.96921 37032 ft 539 kts 42°
2026-05-08 04:12 28.77736 -91.90727 37039 ft 539 kts 42°
2026-05-08 04:13 28.82901 -91.84525 37037 ft 540 kts 41°
2026-05-08 04:13 28.88034 -91.78353 37032 ft 540 kts 42°
2026-05-08 04:14 28.93202 -91.72127 37034 ft 540 kts 42°
2026-05-08 04:14 28.98372 -91.65891 37044 ft 541 kts 41°
2026-05-08 04:15 29.03550 -91.59636 37037 ft 542 kts 41°
2026-05-08 04:15 29.08725 -91.53374 37039 ft 542 kts 41°
2026-05-08 04:16 29.13867 -91.47141 37037 ft 542 kts 41°
2026-05-08 04:16 29.19040 -91.40862 37034 ft 542 kts 41°
2026-05-08 04:17 29.24206 -91.34581 37055 ft 542 kts 41°
2026-05-08 04:17 29.29372 -91.28289 37035 ft 542 kts 41°
2026-05-08 04:18 29.34536 -91.21992 37039 ft 542 kts 41°
2026-05-08 04:18 29.39663 -91.15730 37044 ft 542 kts 41°
2026-05-08 04:19 29.44819 -91.09420 37038 ft 542 kts 41°
2026-05-08 04:19 29.49970 -91.03107 37045 ft 542 kts 41°
2026-05-08 04:20 29.55083 -90.96830 37059 ft 542 kts 41°
2026-05-08 04:20 29.60233 -90.90498 37042 ft 542 kts 41°
2026-05-08 04:21 29.64296 -90.84988 37028 ft 550 kts 52°
2026-05-08 04:21 29.66813 -90.79839 37042 ft 555 kts 63°
2026-05-08 04:21 29.68224 -90.75704 37045 ft 557 kts 72°
2026-05-08 04:22 29.70145 -90.67053 37033 ft 558 kts 75°
2026-05-08 04:22 29.71982 -90.58435 37042 ft 559 kts 75°
2026-05-08 04:23 29.73910 -90.49768 37039 ft 559 kts 74°
2026-05-08 04:23 29.75875 -90.41103 37042 ft 560 kts 74°
2026-05-08 04:24 29.77505 -90.33891 37042 ft 560 kts 74°
2026-05-08 04:24 29.79766 -90.23808 37040 ft 560 kts 74°
2026-05-08 04:25 29.81392 -90.16529 37044 ft 560 kts 75°
2026-05-08 04:25 29.83318 -90.07915 37060 ft 558 kts 72°
2026-05-08 04:26 29.84696 -90.03759 37041 ft 554 kts 58°
2026-05-08 04:26 29.86772 -90.00073 37059 ft 546 kts 46°
2026-05-08 04:26 29.89333 -89.96892 37025 ft 538 kts 34°
2026-05-08 04:26 29.92289 -89.94362 37032 ft 524 kts 25°
2026-05-08 04:27 29.98436 -89.89804 37038 ft 527 kts 25°
2026-05-08 04:27 30.04544 -89.85168 37038 ft 531 kts 26°
2026-05-08 04:28 30.10699 -89.80402 37035 ft 534 kts 26°
2026-05-08 04:28 30.17872 -89.74806 37035 ft 536 kts 26°
2026-05-08 04:29 30.23049 -89.70763 37035 ft 536 kts 26°
2026-05-08 04:29 30.29194 -89.65963 37049 ft 536 kts 26°
2026-05-08 04:30 30.35366 -89.61138 37033 ft 535 kts 26°
2026-05-08 04:30 30.41525 -89.56316 37064 ft 534 kts 26°
2026-05-08 04:31 30.47678 -89.51492 37046 ft 534 kts 26°
2026-05-08 04:31 30.53823 -89.46666 37031 ft 533 kts 26°
2026-05-08 04:32 30.59915 -89.41875 37041 ft 532 kts 26°
2026-05-08 04:32 30.66042 -89.37049 37039 ft 532 kts 26°
2026-05-08 04:33 30.72170 -89.32215 37044 ft 532 kts 26°
2026-05-08 04:33 30.78297 -89.27374 37044 ft 533 kts 26°
2026-05-08 04:34 30.84383 -89.22557 37048 ft 533 kts 26°
2026-05-08 04:34 30.90514 -89.17697 37045 ft 533 kts 26°
2026-05-08 04:35 30.96644 -89.12830 37077 ft 533 kts 26°
2026-05-08 04:35 31.02781 -89.07950 37058 ft 534 kts 26°
2026-05-08 04:36 31.08879 -89.03093 37054 ft 534 kts 26°
2026-05-08 04:36 31.15018 -88.98196 37052 ft 535 kts 26°
2026-05-08 04:37 31.21160 -88.93288 37057 ft 535 kts 26°
2026-05-08 04:37 31.27301 -88.88374 37062 ft 536 kts 25°
2026-05-08 04:38 31.33409 -88.83478 37060 ft 536 kts 25°
2026-05-08 04:38 31.39561 -88.78538 37056 ft 536 kts 25°
2026-05-08 04:39 31.45710 -88.73593 37049 ft 536 kts 25°
2026-05-08 04:39 31.51854 -88.68644 37089 ft 536 kts 25°
2026-05-08 04:40 31.57966 -88.63713 37055 ft 537 kts 25°
2026-05-08 04:40 31.64121 -88.58740 37048 ft 537 kts 25°
2026-05-08 04:41 31.70278 -88.53757 37046 ft 538 kts 25°
2026-05-08 04:41 31.76431 -88.48767 37048 ft 538 kts 25°
2026-05-08 04:42 31.82547 -88.43801 37055 ft 538 kts 25°
2026-05-08 04:42 31.88708 -88.38791 37049 ft 538 kts 25°
2026-05-08 04:43 31.94869 -88.33770 37048 ft 539 kts 25°
2026-05-08 04:43 32.00988 -88.28776 37048 ft 538 kts 25°
2026-05-08 04:44 32.07142 -88.23745 37088 ft 539 kts 25°
2026-05-08 04:44 32.13305 -88.18699 37057 ft 539 kts 25°
2026-05-08 04:45 32.19469 -88.13644 37065 ft 540 kts 25°
2026-05-08 04:45 32.25629 -88.08583 37066 ft 540 kts 25°
2026-05-08 04:46 32.31750 -88.03544 37052 ft 540 kts 25°
2026-05-08 04:46 32.37913 -87.98464 37027 ft 540 kts 24°
2026-05-08 04:47 32.44073 -87.93377 37040 ft 540 kts 24°
2026-05-08 04:47 32.50189 -87.88318 37052 ft 540 kts 24°
2026-05-08 04:48 32.56345 -87.83218 37036 ft 540 kts 25°
2026-05-08 04:48 32.62501 -87.78108 37089 ft 540 kts 24°
2026-05-08 04:49 32.68664 -87.72985 37055 ft 541 kts 24°
2026-05-08 04:49 32.74823 -87.67856 37055 ft 540 kts 24°
2026-05-08 04:50 32.80933 -87.62756 37053 ft 540 kts 24°
2026-05-08 04:50 32.87073 -87.57625 37123 ft 539 kts 24°
2026-05-08 04:51 32.93215 -87.52484 37052 ft 540 kts 24°
2026-05-08 04:51 32.99357 -87.47334 37049 ft 539 kts 24°
2026-05-08 04:52 33.05445 -87.42218 37037 ft 539 kts 24°
2026-05-08 04:52 33.11572 -87.37063 37038 ft 539 kts 24°
2026-05-08 04:53 33.17696 -87.31902 37019 ft 540 kts 24°
2026-05-08 04:53 33.23822 -87.26728 37012 ft 539 kts 24°
2026-05-08 04:54 33.29899 -87.21586 37024 ft 538 kts 24°
2026-05-08 04:54 33.36009 -87.16408 37058 ft 538 kts 24°
2026-05-08 04:55 33.42109 -87.11230 37066 ft 538 kts 24°
2026-05-08 04:55 33.48208 -87.06043 37078 ft 537 kts 24°
2026-05-08 04:56 33.54260 -87.00887 37059 ft 538 kts 24°
2026-05-08 04:56 33.60356 -86.95684 37083 ft 538 kts 24°
2026-05-08 04:57 33.66408 -86.90369 37120 ft 545 kts 28°
2026-05-08 04:57 33.71927 -86.83924 37103 ft 559 kts 38°
2026-05-08 04:58 33.77131 -86.77063 37072 ft 560 kts 38°
2026-05-08 04:58 33.82378 -86.70152 37071 ft 559 kts 38°
2026-05-08 04:59 33.87649 -86.63288 37066 ft 558 kts 38°
2026-05-08 04:59 33.92935 -86.56432 37099 ft 559 kts 38°
2026-05-08 05:00 33.98192 -86.49603 37073 ft 560 kts 38°
2026-05-08 05:00 34.03476 -86.42713 37069 ft 559 kts 38°
2026-05-08 05:01 34.08752 -86.35818 37080 ft 559 kts 38°
2026-05-08 05:01 34.14016 -86.28924 37080 ft 559 kts 38°
2026-05-08 05:02 34.19279 -86.22020 37057 ft 559 kts 38°
2026-05-08 05:02 34.24506 -86.15152 37051 ft 558 kts 38°
2026-05-08 05:03 34.29752 -86.08240 37050 ft 558 kts 38°
2026-05-08 05:03 34.34994 -86.01323 37054 ft 557 kts 38°
2026-05-08 05:04 34.40228 -85.94402 37051 ft 557 kts 38°
2026-05-08 05:04 34.45429 -85.87513 37052 ft 558 kts 37°
2026-05-08 05:05 34.50666 -85.80561 37054 ft 558 kts 38°
2026-05-08 05:05 34.55895 -85.73603 37056 ft 558 kts 38°
2026-05-08 05:06 34.61121 -85.66637 37042 ft 558 kts 38°
2026-05-08 05:06 34.66305 -85.59714 37094 ft 558 kts 37°
2026-05-08 05:07 34.71527 -85.52727 37054 ft 559 kts 37°
2026-05-08 05:07 34.76748 -85.45724 37061 ft 559 kts 38°
2026-05-08 05:08 34.81973 -85.38703 37056 ft 559 kts 37°
2026-05-08 05:08 34.87150 -85.31730 37053 ft 558 kts 37°
2026-05-08 05:09 34.92353 -85.24710 37088 ft 559 kts 37°
2026-05-08 05:09 34.97561 -85.17671 37093 ft 559 kts 37°
2026-05-08 05:10 35.05380 -85.07074 37078 ft 561 kts 37°
2026-05-08 05:11 35.10559 -85.00036 37075 ft 561 kts 38°
2026-05-08 05:11 35.15771 -84.92938 37111 ft 562 kts 37°
2026-05-08 05:12 35.21000 -84.85804 37074 ft 564 kts 37°
2026-05-08 05:12 35.26244 -84.78634 37063 ft 566 kts 37°
2026-05-08 05:13 35.31486 -84.71448 37060 ft 566 kts 37°
2026-05-08 05:13 35.36701 -84.64285 37091 ft 567 kts 38°
2026-05-08 05:14 35.41948 -84.57064 37113 ft 569 kts 37°
2026-05-08 05:14 35.47212 -84.49806 37105 ft 570 kts 37°
2026-05-08 05:15 35.52473 -84.42534 37083 ft 570 kts 37°
2026-05-08 05:15 35.57702 -84.35290 37047 ft 570 kts 37°
2026-05-08 05:16 35.62964 -84.27986 37098 ft 571 kts 37°
2026-05-08 05:16 35.68234 -84.20657 37070 ft 572 kts 37°
2026-05-08 05:17 35.73508 -84.13305 37064 ft 573 kts 37°
2026-05-08 05:17 35.78743 -84.05988 37074 ft 573 kts 37°
2026-05-08 05:18 35.84016 -83.98604 37077 ft 574 kts 38°
2026-05-08 05:18 35.89524 -83.91659 37083 ft 556 kts 27°
2026-05-08 05:18 35.92543 -83.88761 37096 ft 545 kts 21°
2026-05-08 05:19 35.95668 -83.86184 37088 ft 535 kts 16°
2026-05-08 05:19 35.98852 -83.84054 37093 ft 523 kts 12°
2026-05-08 05:19 36.02099 -83.82040 37095 ft 522 kts 11°
2026-05-08 05:20 36.08598 -83.78037 37100 ft 522 kts 11°
2026-05-08 05:20 36.15106 -83.73974 37064 ft 525 kts 11°
2026-05-08 05:21 36.21620 -83.69855 37057 ft 526 kts 12°
2026-05-08 05:21 36.28088 -83.65740 37046 ft 526 kts 12°
2026-05-08 05:22 36.34601 -83.61591 37140 ft 526 kts 11°
2026-05-08 05:22 36.41120 -83.57437 37060 ft 527 kts 11°
2026-05-08 05:23 36.47635 -83.53275 37040 ft 526 kts 11°
2026-05-08 05:23 36.54093 -83.49142 37048 ft 525 kts 11°
2026-05-08 05:24 36.60578 -83.44985 37107 ft 524 kts 11°
2026-05-08 05:24 36.67065 -83.40823 37050 ft 524 kts 11°
2026-05-08 05:25 36.73534 -83.36660 37040 ft 522 kts 11°
2026-05-08 05:25 36.79928 -83.32535 37053 ft 520 kts 11°
2026-05-08 05:26 36.86361 -83.28383 37078 ft 521 kts 11°
2026-05-08 05:26 36.92805 -83.24218 37052 ft 522 kts 11°
2026-05-08 05:27 36.99246 -83.20041 37060 ft 521 kts 11°
2026-05-08 05:27 37.05634 -83.15891 37125 ft 521 kts 11°
2026-05-08 05:28 37.12071 -83.11706 37062 ft 521 kts 11°
2026-05-08 05:28 37.18495 -83.07515 37062 ft 520 kts 11°
2026-05-08 05:29 37.24908 -83.03324 37044 ft 519 kts 11°
2026-05-08 05:29 37.31314 -82.99131 37083 ft 520 kts 11°
2026-05-08 05:30 37.37692 -82.94951 37070 ft 520 kts 11°
2026-05-08 05:30 37.44109 -82.90734 37070 ft 520 kts 12°
2026-05-08 05:31 37.50525 -82.86510 37147 ft 520 kts 12°
2026-05-08 05:31 37.56941 -82.82278 37079 ft 521 kts 12°
2026-05-08 05:32 37.63351 -82.78039 37084 ft 519 kts 12°
2026-05-08 05:32 37.69699 -82.73833 37089 ft 518 kts 12°
2026-05-08 05:33 37.76079 -82.69601 37104 ft 518 kts 12°
2026-05-08 05:33 37.82458 -82.65361 37092 ft 518 kts 12°
2026-05-08 05:34 37.88821 -82.61121 37071 ft 516 kts 12°
2026-05-08 05:34 37.95129 -82.56910 37070 ft 515 kts 12°
2026-05-08 05:35 38.01477 -82.52670 37056 ft 516 kts 13°
2026-05-08 05:35 38.07820 -82.48419 37051 ft 516 kts 13°
2026-05-08 05:36 38.14160 -82.44161 37057 ft 515 kts 13°
2026-05-08 05:36 38.20455 -82.39926 37045 ft 516 kts 13°
2026-05-08 05:37 38.26795 -82.35654 37046 ft 516 kts 13°
2026-05-08 05:37 38.33138 -82.31370 37055 ft 516 kts 13°
2026-05-08 05:38 38.39479 -82.27080 37049 ft 517 kts 13°
2026-05-08 05:38 38.42622 -82.24867 37199 ft 513 kts 16°
2026-05-08 05:38 38.45780 -82.22758 37095 ft 516 kts 14°
2026-05-08 05:39 38.52176 -82.18517 37065 ft 524 kts 14°
2026-05-08 05:39 38.58593 -82.14128 37053 ft 529 kts 14°
2026-05-08 05:40 38.65076 -82.09666 37090 ft 530 kts 14°
2026-05-08 05:40 38.71513 -82.05253 37041 ft 520 kts 14°
2026-05-08 05:41 38.77796 -82.00548 37039 ft 533 kts 22°
2026-05-08 05:41 38.83773 -81.94940 37051 ft 538 kts 24°
2026-05-08 05:42 38.89774 -81.89175 37053 ft 539 kts 24°
2026-05-08 05:42 38.95797 -81.83445 37054 ft 539 kts 24°
2026-05-08 05:43 39.01836 -81.77742 37038 ft 538 kts 23°
2026-05-08 05:43 39.07828 -81.72086 37093 ft 538 kts 24°
2026-05-08 05:44 39.13861 -81.66376 37042 ft 538 kts 24°
2026-05-08 05:44 39.19874 -81.60664 37039 ft 536 kts 24°
2026-05-08 05:45 39.25867 -81.54959 37055 ft 535 kts 24°
2026-05-08 05:45 39.31470 -81.48697 37082 ft 551 kts 47°
2026-05-08 05:45 39.33616 -81.44607 37057 ft 539 kts 36°
2026-05-08 05:46 39.36477 -81.41889 37083 ft 492 kts
2026-05-08 05:46 39.42796 -81.38475 37031 ft 508 kts 14°
2026-05-08 05:46 39.45898 -81.36130 37041 ft 524 kts 21°
2026-05-08 05:47 39.48925 -81.33408 37079 ft 535 kts 25°
2026-05-08 05:47 39.54820 -81.27510 37048 ft 541 kts 27°
2026-05-08 05:48 39.60755 -81.21531 37032 ft 539 kts 26°
2026-05-08 05:48 39.66731 -81.15699 37026 ft 536 kts 25°
2026-05-08 05:49 39.72698 -81.09945 37082 ft 534 kts 26°
2026-05-08 05:49 39.78599 -81.04236 37026 ft 530 kts 26°
2026-05-08 05:50 39.84481 -80.98515 37021 ft 526 kts 26°
2026-05-08 05:50 39.90329 -80.92816 37058 ft 524 kts 26°
2026-05-08 05:51 39.96162 -80.87122 37028 ft 523 kts 26°
2026-05-08 05:51 40.01962 -80.81528 37024 ft 518 kts 22°
2026-05-08 05:52 40.08084 -80.76823 37021 ft 508 kts 17°
2026-05-08 05:52 40.14279 -80.72341 37034 ft 510 kts 17°
2026-05-08 05:53 40.20483 -80.67798 37022 ft 511 kts 18°
2026-05-08 05:53 40.26641 -80.63222 37026 ft 513 kts 18°
2026-05-08 05:54 40.32843 -80.58591 37038 ft 514 kts 18°
2026-05-08 05:54 40.39053 -80.53947 37016 ft 514 kts 18°
2026-05-08 05:55 40.45271 -80.49291 37019 ft 515 kts 18°
2026-05-08 05:55 40.51455 -80.44651 37030 ft 515 kts 18°
2026-05-08 05:56 40.57681 -80.39969 37018 ft 516 kts 18°
2026-05-08 05:56 40.63904 -80.35278 37012 ft 515 kts 18°
2026-05-08 05:57 40.70119 -80.30583 37008 ft 515 kts 18°
2026-05-08 05:57 40.76285 -80.25917 37023 ft 515 kts 18°
2026-05-08 05:58 40.82495 -80.21206 37041 ft 514 kts 19°
2026-05-08 05:58 40.88672 -80.16427 37017 ft 515 kts 19°
2026-05-08 05:59 40.94827 -80.11585 37052 ft 515 kts 20°
2026-05-08 05:59 41.00946 -80.06767 37019 ft 515 kts 20°
2026-05-08 06:00 41.07097 -80.01924 37012 ft 514 kts 20°
2026-05-08 06:00 41.13243 -79.97082 37045 ft 514 kts 20°
2026-05-08 06:01 41.19391 -79.92230 37010 ft 515 kts 20°
2026-05-08 06:01 41.25506 -79.87390 36977 ft 515 kts 20°
2026-05-08 06:02 41.31656 -79.82510 36984 ft 515 kts 20°
2026-05-08 06:02 41.37812 -79.77617 36991 ft 515 kts 21°
2026-05-08 06:03 41.43961 -79.72717 36985 ft 515 kts 21°
2026-05-08 06:03 41.50115 -79.67802 36978 ft 515 kts 21°
2026-05-08 06:04 41.56161 -79.62790 36959 ft 512 kts 21°
2026-05-08 06:04 41.62268 -79.57951 36985 ft 510 kts 21°
2026-05-08 06:05 41.68399 -79.53135 36993 ft 512 kts 21°
2026-05-08 06:05 41.74523 -79.48224 37002 ft 514 kts 22°
2026-05-08 06:06 41.80660 -79.43254 36995 ft 516 kts 22°
2026-05-08 06:06 41.86761 -79.38306 36990 ft 516 kts 22°
2026-05-08 06:07 41.92909 -79.33316 37000 ft 517 kts 23°
2026-05-08 06:07 41.99069 -79.28308 36980 ft 517 kts 23°
2026-05-08 06:08 42.05181 -79.23326 36963 ft 517 kts 23°
2026-05-08 06:08 42.11330 -79.18302 36985 ft 517 kts 23°
2026-05-08 06:09 42.17470 -79.13265 36967 ft 517 kts 25°
2026-05-08 06:09 42.23291 -79.07384 36978 ft 526 kts 33°
2026-05-08 06:10 42.28869 -79.00987 36980 ft 526 kts 33°
2026-05-08 06:10 42.34408 -78.94610 36973 ft 527 kts 33°
2026-05-08 06:11 42.40008 -78.88222 36971 ft 527 kts 33°
2026-05-08 06:11 42.45621 -78.81843 36968 ft 527 kts 33°
2026-05-08 06:12 42.51239 -78.75448 36971 ft 528 kts 33°
2026-05-08 06:12 42.56817 -78.69075 36975 ft 528 kts 33°
2026-05-08 06:13 42.62422 -78.62652 36972 ft 527 kts 33°
2026-05-08 06:13 42.68022 -78.56221 36984 ft 527 kts 34°
2026-05-08 06:14 42.73618 -78.49778 36972 ft 527 kts 34°
2026-05-08 06:14 42.79163 -78.43378 36967 ft 526 kts 34°
2026-05-08 06:15 42.84734 -78.36933 37009 ft 525 kts 34°
2026-05-08 06:15 42.90306 -78.30473 36960 ft 525 kts 34°
2026-05-08 06:16 42.95864 -78.24010 36953 ft 525 kts 34°
2026-05-08 06:16 43.01372 -78.17591 36952 ft 524 kts 34°
2026-05-08 06:17 43.09671 -78.07890 36957 ft 523 kts 35°
2026-05-08 06:17 43.15194 -78.01413 36952 ft 522 kts 35°
2026-05-08 06:18 43.20708 -77.94932 36976 ft 522 kts 35°
2026-05-08 06:18 43.26179 -77.88485 36955 ft 522 kts 35°
2026-05-08 06:19 43.31679 -77.81988 36944 ft 522 kts 35°
2026-05-08 06:19 43.37174 -77.75480 36983 ft 521 kts 36°
2026-05-08 06:20 43.42665 -77.68962 36955 ft 521 kts 36°
2026-05-08 06:20 43.48151 -77.62432 36951 ft 521 kts 36°
2026-05-08 06:21 43.53589 -77.55943 36944 ft 520 kts 36°
2026-05-08 06:21 43.59057 -77.49404 36946 ft 521 kts 36°
2026-05-08 06:22 43.64523 -77.42850 36946 ft 520 kts 36°
2026-05-08 06:22 43.69984 -77.36285 36942 ft 520 kts 36°
2026-05-08 06:23 43.75407 -77.29750 36946 ft 521 kts 37°
2026-05-08 06:23 43.80860 -77.23162 36939 ft 520 kts 37°
2026-05-08 06:24 43.86309 -77.16562 36936 ft 520 kts 37°
2026-05-08 06:24 43.91751 -77.09954 36946 ft 520 kts 37°
2026-05-08 06:25 43.97152 -77.03379 36931 ft 520 kts 37°
2026-05-08 06:25 44.02587 -76.96747 36924 ft 520 kts 37°
2026-05-08 06:26 44.08010 -76.90111 36924 ft 519 kts 37°
2026-05-08 06:26 44.13431 -76.83462 36912 ft 519 kts 37°
2026-05-08 06:27 44.18810 -76.76847 36919 ft 519 kts 37°
2026-05-08 06:27 44.24227 -76.70170 36932 ft 520 kts 38°
2026-05-08 06:28 44.29649 -76.63468 36912 ft 521 kts 38°
2026-05-08 06:28 44.35065 -76.56756 36908 ft 521 kts 38°
2026-05-08 06:29 44.40441 -76.50077 36921 ft 521 kts 38°
2026-05-08 06:29 44.45849 -76.43339 36899 ft 520 kts 38°
2026-05-08 06:30 44.51246 -76.36598 36895 ft 519 kts 38°
2026-05-08 06:30 44.56630 -76.29857 36894 ft 519 kts 38°
2026-05-08 06:31 44.61911 -76.23047 36875 ft 521 kts 43°
2026-05-08 06:31 44.66468 -76.15112 36880 ft 525 kts 55°
2026-05-08 06:32 44.70356 -76.06437 36879 ft 525 kts 56°
2026-05-08 06:32 44.74216 -75.97718 36891 ft 525 kts 56°
2026-05-08 06:33 44.78078 -75.89076 36882 ft 525 kts 56°
2026-05-08 06:33 44.79648 -75.85581 36878 ft 525 kts 56°
2026-05-08 06:34 44.81496 -75.81468 36876 ft 525 kts 56°
2026-05-08 06:35 44.83502 -75.77002 36863 ft 525 kts 56°
2026-05-08 06:36 44.87394 -75.68310 36886 ft 525 kts 56°
2026-05-08 06:36 44.88552 -75.65719 36889 ft 525 kts 56°
2026-05-08 06:37 44.90454 -75.61455 35504 ft 525 kts 57°
2026-05-08 06:37 44.92382 -75.57114 36957 ft 523 kts 56°
2026-05-08 06:37 44.96265 -75.48385 36885 ft 526 kts 56°
2026-05-08 06:38 45.00150 -75.39618 36877 ft 527 kts 56°
2026-05-08 06:38 45.04032 -75.30823 36889 ft 528 kts 56°
2026-05-08 06:39 45.07882 -75.22070 36863 ft 527 kts 57°
2026-05-08 06:39 45.11732 -75.13294 37238 ft 520 kts 57°
2026-05-08 06:40 45.13633 -75.08952 37568 ft 518 kts 57°
2026-05-08 06:40 45.15527 -75.04619 37892 ft 516 kts 57°
2026-05-08 06:40 45.17414 -75.00297 38221 ft 514 kts 57°
2026-05-08 06:40 45.19290 -74.95992 38561 ft 512 kts 57°
2026-05-08 06:41 45.21157 -74.91703 38777 ft 511 kts 57°
2026-05-08 06:41 45.23030 -74.87391 38816 ft 515 kts 57°
2026-05-08 06:41 45.26782 -74.78738 38851 ft 522 kts 57°
2026-05-08 06:42 45.30607 -74.69886 38864 ft 529 kts 57°
2026-05-08 06:42 45.34472 -74.60913 38867 ft 535 kts 57°
2026-05-08 06:43 45.38301 -74.51991 38837 ft 527 kts 58°
2026-05-08 06:43 45.42082 -74.43155 38847 ft 524 kts 58°
2026-05-08 06:44 45.45863 -74.34293 38862 ft 523 kts 58°
2026-05-08 06:44 45.49639 -74.25417 38859 ft 524 kts 58°
2026-05-08 06:45 45.53387 -74.16577 38846 ft 525 kts 58°
2026-05-08 06:45 45.57158 -74.07652 38858 ft 526 kts 58°
2026-05-08 06:46 45.60931 -73.98697 38844 ft 527 kts 58°
2026-05-08 06:46 45.64824 -73.89824 38843 ft 527 kts 56°
2026-05-08 06:47 45.68902 -73.81180 38847 ft 528 kts 55°
2026-05-08 06:47 45.73014 -73.72470 38856 ft 529 kts 55°
2026-05-08 06:48 45.77086 -73.63700 38856 ft 529 kts 56°
2026-05-08 06:48 45.81131 -73.54897 38864 ft 529 kts 56°
2026-05-08 06:49 45.85138 -73.46139 38859 ft 529 kts 56°
2026-05-08 06:49 45.89166 -73.37316 38857 ft 528 kts 56°
2026-05-08 06:50 45.93182 -73.28497 38854 ft 527 kts 56°
2026-05-08 06:50 45.97159 -73.19738 38862 ft 526 kts 56°
2026-05-08 06:51 46.01149 -73.10922 38835 ft 526 kts 56°
2026-05-08 06:51 46.05134 -73.02089 38842 ft 526 kts 56°
2026-05-08 06:52 46.09115 -72.93239 38844 ft 527 kts 56°
2026-05-08 06:52 46.13068 -72.84423 38848 ft 528 kts 56°
2026-05-08 06:53 46.17046 -72.75521 38834 ft 528 kts 57°
2026-05-08 06:53 46.21021 -72.66597 38826 ft 529 kts 57°
2026-05-08 06:54 46.24993 -72.57654 38826 ft 529 kts 57°
2026-05-08 06:54 46.28959 -72.48694 38822 ft 529 kts 57°
2026-05-08 06:55 46.32890 -72.39784 38827 ft 529 kts 57°
2026-05-08 06:55 46.36846 -72.30789 38824 ft 529 kts 57°
2026-05-08 06:56 46.40791 -72.21790 38831 ft 529 kts 57°
2026-05-08 06:56 46.44729 -72.12778 38828 ft 529 kts 57°
2026-05-08 06:57 46.48633 -72.03817 38818 ft 529 kts 57°
2026-05-08 06:57 46.52555 -71.94783 38808 ft 529 kts 57°
2026-05-08 06:58 46.56465 -71.85746 38829 ft 528 kts 57°
2026-05-08 06:58 46.60370 -71.76693 38818 ft 529 kts 58°
2026-05-08 06:59 46.64245 -71.67679 38806 ft 529 kts 58°
2026-05-08 06:59 46.68141 -71.58589 38801 ft 529 kts 58°
2026-05-08 07:00 46.72028 -71.49487 38805 ft 529 kts 58°
2026-05-08 07:00 46.75908 -71.40374 38802 ft 529 kts 58°
2026-05-08 07:01 46.79782 -71.31242 38792 ft 529 kts 58°
2026-05-08 07:01 46.83623 -71.22160 38802 ft 529 kts 58°
2026-05-08 07:02 46.87484 -71.13001 38804 ft 529 kts 58°
2026-05-08 07:02 46.91339 -71.03824 38799 ft 530 kts 58°
2026-05-08 07:03 46.95187 -70.94633 38784 ft 530 kts 58°
2026-05-08 07:03 46.99002 -70.85492 38783 ft 529 kts 58°
2026-05-08 07:04 47.02831 -70.76285 38757 ft 529 kts 59°
2026-05-08 07:04 47.06652 -70.67068 38764 ft 529 kts 59°
2026-05-08 07:05 47.10462 -70.57844 38772 ft 528 kts 59°
2026-05-08 07:05 47.14237 -70.48675 38762 ft 528 kts 59°
2026-05-08 07:06 47.18029 -70.39433 38760 ft 528 kts 59°
2026-05-08 07:06 47.21814 -70.30179 38756 ft 528 kts 59°
2026-05-08 07:07 47.25593 -70.20906 38755 ft 528 kts 59°
2026-05-08 07:07 47.29337 -70.11687 38742 ft 528 kts 59°
2026-05-08 07:08 47.33101 -70.02390 38750 ft 528 kts 60°
2026-05-08 07:08 47.36860 -69.93072 38747 ft 529 kts 60°
2026-05-08 07:09 47.40615 -69.83730 38745 ft 529 kts 60°
2026-05-08 07:09 47.44340 -69.74433 38747 ft 529 kts 60°
2026-05-08 07:10 47.48081 -69.65063 38757 ft 530 kts 60°
2026-05-08 07:10 47.51816 -69.55676 38745 ft 530 kts 60°
2026-05-08 07:11 47.55544 -69.46274 38740 ft 529 kts 60°
2026-05-08 07:11 47.59239 -69.36922 38740 ft 530 kts 60°
2026-05-08 07:12 47.62952 -69.27490 38735 ft 530 kts 61°
2026-05-08 07:12 47.66661 -69.18039 38723 ft 530 kts 61°
2026-05-08 07:13 47.70362 -69.08570 38744 ft 530 kts 61°
2026-05-08 07:13 47.73433 -69.00694 38729 ft 530 kts 61°
2026-05-08 07:14 47.77627 -68.89584 38726 ft 530 kts 63°
2026-05-08 07:14 47.81152 -68.79958 38743 ft 530 kts 63°
2026-05-08 07:15 47.84082 -68.71940 38735 ft 531 kts 63°
2026-05-08 07:15 47.87614 -68.62291 38739 ft 531 kts 63°
2026-05-08 07:16 47.91724 -68.51052 38735 ft 532 kts 63°
2026-05-08 07:16 47.94682 -68.42936 38738 ft 532 kts 63°
2026-05-08 07:17 47.98180 -68.33302 38738 ft 532 kts 63°
2026-05-08 07:17 48.02286 -68.21948 38704 ft 531 kts 63°
2026-05-08 07:18 48.05195 -68.13874 38720 ft 531 kts 63°
2026-05-08 07:18 48.08688 -68.04143 38747 ft 531 kts 64°
2026-05-08 07:19 48.12176 -67.94390 38734 ft 532 kts 64°
2026-05-08 07:19 48.15639 -67.84672 38732 ft 532 kts 64°
2026-05-08 07:20 48.19117 -67.74876 38727 ft 533 kts 64°
2026-05-08 07:20 48.22587 -67.65065 38729 ft 533 kts 64°
2026-05-08 07:21 48.26049 -67.55240 38721 ft 533 kts 64°
2026-05-08 07:21 48.29500 -67.45411 38719 ft 532 kts 64°
2026-05-08 07:22 48.32918 -67.35637 38717 ft 532 kts 64°
2026-05-08 07:22 48.36347 -67.25795 38718 ft 531 kts 64°
2026-05-08 07:23 48.39767 -67.15942 38711 ft 531 kts 64°
2026-05-08 07:23 48.43179 -67.06074 38714 ft 531 kts 65°
2026-05-08 07:24 48.46555 -66.96273 38710 ft 531 kts 65°
2026-05-08 07:24 48.49943 -66.86400 38706 ft 530 kts 65°
2026-05-08 07:25 48.53324 -66.76507 38716 ft 531 kts 65°
2026-05-08 07:26 48.58364 -66.61692 38707 ft 531 kts 65°
2026-05-08 07:26 48.61730 -66.51750 38702 ft 532 kts 65°
2026-05-08 07:27 48.65090 -66.41788 38702 ft 532 kts 65°
2026-05-08 07:27 48.68443 -66.31807 38699 ft 532 kts 65°
2026-05-08 07:28 48.71786 -66.21815 38692 ft 532 kts 66°
2026-05-08 07:28 48.75101 -66.11871 38698 ft 533 kts 66°
2026-05-08 07:29 48.78440 -66.01814 38696 ft 535 kts 66°
2026-05-08 07:29 48.81780 -65.91712 38698 ft 536 kts 66°
2026-05-08 07:30 48.85095 -65.81647 38688 ft 537 kts 66°
2026-05-08 07:30 48.88426 -65.71495 38690 ft 537 kts 66°
2026-05-08 07:31 48.91752 -65.61319 38682 ft 537 kts 66°
2026-05-08 07:31 48.95069 -65.51126 38677 ft 538 kts 66°
2026-05-08 07:32 48.98377 -65.40918 38686 ft 538 kts 67°
2026-05-08 07:32 49.01659 -65.30752 38671 ft 539 kts 67°
2026-05-08 07:33 49.04958 -65.20493 38674 ft 539 kts 67°
2026-05-08 07:33 49.08250 -65.10213 38668 ft 539 kts 67°
2026-05-08 07:34 49.11530 -64.99926 38666 ft 539 kts 67°
2026-05-08 07:34 49.14781 -64.89689 38622 ft 539 kts 67°
2026-05-08 07:35 49.18043 -64.79377 38651 ft 539 kts 67°
2026-05-08 07:35 49.21295 -64.69051 38668 ft 539 kts 67°
2026-05-08 07:36 49.24541 -64.58703 38661 ft 540 kts 68°
2026-05-08 07:36 49.27760 -64.48397 38657 ft 540 kts 68°
2026-05-08 07:37 49.30992 -64.38008 38661 ft 540 kts 68°
2026-05-08 07:37 49.34216 -64.27601 38657 ft 540 kts 68°
2026-05-08 07:38 49.37427 -64.17193 38634 ft 540 kts 68°
2026-05-08 07:38 49.40608 -64.06835 38656 ft 540 kts 68°
2026-05-08 07:39 49.43805 -63.96384 38655 ft 541 kts 68°
2026-05-08 07:39 49.46996 -63.85905 38642 ft 542 kts 69°
2026-05-08 07:40 49.50183 -63.75395 38651 ft 542 kts 69°
2026-05-08 07:40 49.53362 -63.64868 38653 ft 543 kts 69°
2026-05-08 07:41 49.56514 -63.54385 38659 ft 543 kts 69°
2026-05-08 07:41 49.59680 -63.43812 38642 ft 543 kts 69°
2026-05-08 07:42 49.62836 -63.33225 38642 ft 543 kts 69°
2026-05-08 07:42 49.65982 -63.22623 38653 ft 544 kts 69°
2026-05-08 07:43 49.69099 -63.12073 38651 ft 544 kts 69°
2026-05-08 07:43 49.72231 -63.01431 38650 ft 544 kts 69°
2026-05-08 07:44 49.75348 -62.90786 38644 ft 543 kts 70°
2026-05-08 07:44 49.78454 -62.80138 38646 ft 543 kts 70°
2026-05-08 07:45 49.81526 -62.69558 38638 ft 542 kts 70°
2026-05-08 07:45 49.84605 -62.58908 38653 ft 542 kts 70°
2026-05-08 07:46 49.87675 -62.48236 38637 ft 542 kts 70°
2026-05-08 07:46 49.90739 -62.37542 38637 ft 543 kts 71°
2026-05-08 07:47 49.93794 -62.26827 38640 ft 543 kts 71°
2026-05-08 07:47 49.96820 -62.16170 38643 ft 543 kts 71°
2026-05-08 07:48 49.99861 -62.05413 38648 ft 544 kts 71°
2026-05-08 07:48 50.02852 -61.94636 38577 ft 540 kts 73°
2026-05-08 07:49 50.05797 -61.83870 38650 ft 543 kts 71°
2026-05-08 07:49 50.08876 -61.73085 38657 ft 547 kts 71°
2026-05-08 07:50 50.11916 -61.62287 38656 ft 549 kts 71°
2026-05-08 07:50 50.14947 -61.51334 38649 ft 551 kts 71°
2026-05-08 07:51 50.17964 -61.40339 38640 ft 552 kts 72°
2026-05-08 07:51 50.20974 -61.29329 38636 ft 551 kts 72°
2026-05-08 07:52 50.23973 -61.18318 38637 ft 550 kts 72°
2026-05-08 07:52 50.26940 -61.07376 38641 ft 551 kts 72°
2026-05-08 07:53 50.29917 -60.96343 38636 ft 551 kts 72°
2026-05-08 07:53 50.32883 -60.85297 38636 ft 551 kts 72°
2026-05-08 07:54 50.35842 -60.74225 38636 ft 551 kts 72°
2026-05-08 07:54 50.38769 -60.63220 38633 ft 551 kts 72°
2026-05-08 07:55 50.41708 -60.52118 38613 ft 551 kts 72°
2026-05-08 07:55 50.44636 -60.41003 38621 ft 551 kts 72°
2026-05-08 07:56 50.47552 -60.29878 38614 ft 551 kts 72°
2026-05-08 07:56 50.50438 -60.18816 38616 ft 551 kts 73°
2026-05-08 07:57 50.53331 -60.07672 38613 ft 551 kts 73°
2026-05-08 07:57 50.56215 -59.96507 38615 ft 551 kts 73°
2026-05-08 07:58 50.59086 -59.85337 38602 ft 550 kts 73°
2026-05-08 07:58 50.61924 -59.74246 38549 ft 550 kts 73°
2026-05-08 07:59 50.64767 -59.63076 38605 ft 550 kts 73°
2026-05-08 07:59 50.67607 -59.51855 38591 ft 552 kts 73°
2026-05-08 08:00 50.70449 -59.40576 38607 ft 554 kts 73°
2026-05-08 08:00 50.73274 -59.29309 38607 ft 556 kts 73°
2026-05-08 08:01 50.76113 -59.17930 38606 ft 558 kts 73°
2026-05-08 08:01 50.78946 -59.06520 38615 ft 558 kts 73°
2026-05-08 08:02 50.81764 -58.95081 38579 ft 557 kts 74°
2026-05-08 08:02 50.83361 -58.88351 38631 ft 551 kts 76°
2026-05-08 08:03 50.86058 -58.77045 38624 ft 555 kts 73°
2026-05-08 08:03 50.88922 -58.65671 38639 ft 558 kts 73°
2026-05-08 08:04 50.91745 -58.54238 38852 ft 556 kts 74°
2026-05-08 08:04 50.94512 -58.42784 39048 ft 554 kts 74°
2026-05-08 08:04 50.95418 -58.39004 39168 ft 553 kts 74°